星链-31479 (STARLINK-31479 )

导读 | 星芒AI

STARLINK-31479 是 SpaceX Starlink 项目中的一颗低轨通信卫星,属于该计划的第二批部署任务。它于2023年发射,运行在约550公里高的近地轨道,旨在为全球用户提供高速互联网服务。该卫星采用可再生太阳能供电,具备先进通信技术,支持宽带数据传输。Starlink 卫星群由数千颗卫星组成,目标是构建覆盖全球的卫星互联网网络,尤其服务于偏远地区。STARLINK-31479 的运行有助于提升网络覆盖和连接稳定性。

基本信息
目录编号:
59316
目录名称:
STARLINK-31479
国际标识:
2024-056W
轨道中心:
EARTH
卫星名称:
星链-31479
卫星全名:
星链-31479 (STARLINK-31479 )
卫星状态:
在轨 (已飞行636 天)
发射日期:
2024-03-24 UTC
国别 :
美国 (US)
星等 :
--
轨道信息
数据来源 国际轨道数据
星历时间: 2025-12-19T23:12:01+0800
9小时前
查看轨道信息
半长轴: 6861.194km
偏心率: 0.0000239
轨道倾角: 43.008°
近地点辐角 274.318°
升交点赤经 326.890°
平近点角 85.765°
近地点: 482.893km
远地点: 483.221km
周期: 94.267分钟
每日圈数: 15.275774
详细信息
固有亮度:
5
最大亮度:
0.3
卫星平台:
Starlink v2.0 mini
覆盖范围:
全球
运营商:
太空探索技术公司
运营商所在国:
美国
制造商(研发单位):
太空探索技术公司
制造商所在国:
美国
使用方式:
暂无
卫星简介
星链(Starlink)计划是由太空探索技术公司(SpaceX)提出的一个巨型低轨卫星互联网星座项目,计划在2019年至2024年间在太空搭建由约1.2万颗卫星组成的“星链”网络,其中1584颗将部署在地球上空550千米处的近地轨道,并从2020年开始工作。该卫星仍在工作。
2D轨道图
3D轨道图
轨道高度分析图
轨道倾角分析图
轨道综合分析图
查看轨道综合分析图